| time (UTC) | temp F | wind direction | speed knots | gust knots | rain 1hr in | rain 24hr in | rain mn in | humidity % | barometer mb |
| 20260507212710 | 52 | 195 | 2.6 | 3.5 | 0.00 | 0.00 | 0.00 | 71 | 1006.0 |
| 20260507211806 | 52 | 191 | 2.6 | 3.5 | 0.00 | 0.00 | 0.00 | 71 | 1006.2 |
| 20260507210907 | 52 | 202 | 2.6 | 3.5 | 0.00 | 0.00 | 0.00 | 71 | 1006.0 |
| 20260507210007 | 52 | 183 | 3.5 | 3.5 | 0.00 | 0.00 | 0.00 | 71 | 1006.0 |
| 20260507205404 | 52 | 179 | 2.6 | 3.5 | 0.00 | 0.00 | 0.00 | 72 | 1006.0 |
| 20260507204506 | 52 | 181 | 0.9 | 1.7 | 0.00 | 0.00 | 0.00 | 72 | 1005.8 |
| 20260507203608 | 52 | 243 | 0.0 | 1.7 | 0.00 | 0.00 | 0.00 | 71 | 1005.7 |
| 20260507202706 | 53 | 216 | 1.7 | 1.7 | 0.00 | 0.00 | 0.00 | 70 | 1005.8 |
| 20260507201807 | 54 | 194 | 1.7 | 3.5 | 0.00 | 0.00 | 0.00 | 68 | 1005.4 |
| 20260507200910 | 54 | 198 | 2.6 | 3.5 | 0.00 | 0.00 | 0.00 | 68 | 1005.5 |
| 20260507200011 | 55 | 203 | 2.6 | 3.5 | 0.00 | 0.00 | 0.00 | 68 | 1005.5 |
| 20260507195408 | 55 | 211 | 1.7 | 3.5 | 0.00 | 0.00 | 0.00 | 68 | 1005.3 |
| 20260507194507 | 55 | 211 | 1.7 | 3.5 | 0.00 | 0.00 | 0.00 | 69 | 1005.2 |
| 20260507193606 | 55 | 224 | 0.9 | 1.7 | 0.00 | 0.00 | 0.00 | 70 | 1005.4 |
| 20260507192707 | 56 | 185 | 1.7 | 1.7 | 0.00 | 0.00 | 0.00 | 69 | 1005.1 |
| 20260507192018 | 56 | 177 | 1.7 | 3.5 | 0.00 | 0.00 | 0.00 | 69 | 1005.4 |
| 20260507190907 | 56 | 157 | 1.7 | 3.5 | 0.00 | 0.00 | 0.00 | 68 | 1005.2 |
| 20260507190006 | 56 | 171 | 2.6 | 3.5 | 0.00 | 0.00 | 0.00 | 67 | 1005.2 |
| 20260507185406 | 56 | 176 | 3.5 | 3.5 | 0.00 | 0.00 | 0.00 | 66 | 1005.1 |
| 20260507184506 | 56 | 199 | 2.6 | 3.5 | 0.00 | 0.00 | 0.00 | 66 | 1005.1 |
| 20260507183607 | 57 | 199 | 1.7 | 3.5 | 0.00 | 0.00 | 0.00 | 66 | 1005.0 |
| 20260507182917 | 57 | 210 | 3.5 | 6.1 | 0.00 | 0.00 | 0.00 | 67 | 1004.9 |
| 20260507182019 | 58 | 186 | 2.6 | 3.5 | 0.00 | 0.00 | 0.00 | 67 | 1005.1 |
| 20260507180907 | 56 | 207 | 3.5 | 5.2 | 0.00 | 0.00 | 0.00 | 69 | 1004.9 |
| 20260507180006 | 56 | 230 | 4.3 | 6.1 | 0.00 | 0.00 | 0.00 | 70 | 1005.1 |
| 20260507175405 | 56 | 223 | 4.3 | 6.1 | 0.00 | 0.00 | 0.00 | 70 | 1004.9 |
| 20260507174717 | 55 | 216 | 2.6 | 5.2 | 0.00 | 0.00 | 0.00 | 70 | 1004.9 |
| 20260507173815 | 55 | 243 | 2.6 | 3.5 | 0.00 | 0.00 | 0.00 | 72 | 1004.9 |
| 20260507172917 | 54 | 261 | 4.3 | 5.2 | 0.00 | 0.00 | 0.00 | 72 | 1005.2 |
| 20260507171808 | 54 | 243 | 3.5 | 3.5 | 0.00 | 0.00 | 0.00 | 71 | 1005.1 |
| 20260507170905 | 54 | 246 | 3.5 | 5.2 | 0.00 | 0.00 | 0.00 | 71 | 1004.9 |
| 20260507170009 | 54 | 266 | 6.1 | 9.6 | 0.00 | 0.00 | 0.00 | 71 | 1004.9 |
| 20260507165407 | 54 | 271 | 6.1 | 9.6 | 0.00 | 0.00 | 0.00 | 70 | 1005.2 |
| 20260507164505 | 55 | 205 | 7.0 | 9.6 | 0.00 | 0.00 | 0.00 | 68 | 1005.2 |
| 20260507163606 | 57 | 159 | 5.2 | 9.6 | 0.00 | 0.00 | 0.00 | 62 | 1005.1 |
| 20260507162923 | 57 | 164 | 5.2 | 7.0 | 0.00 | 0.00 | 0.00 | 61 | 1004.6 |
| 20260507161809 | 58 | 160 | 5.2 | 7.8 | 0.00 | 0.00 | 0.00 | 60 | 1004.7 |
| 20260507160907 | 58 | 134 | 6.1 | 7.8 | 0.00 | 0.00 | 0.00 | 60 | 1004.8 |
| 20260507160006 | 58 | 132 | 6.1 | 7.8 | 0.00 | 0.00 | 0.00 | 60 | 1004.7 |
| 20260507155405 | 58 | 138 | 7.0 | 7.8 | 0.00 | 0.00 | 0.00 | 60 | 1004.8 |
| 20260507154507 | 58 | 149 | 6.1 | 7.8 | 0.00 | 0.00 | 0.00 | 59 | 1004.7 |
| 20260507153605 | 58 | 177 | 5.2 | 7.8 | 0.00 | 0.00 | 0.00 | 58 | 1004.7 |
| 20260507152918 | 59 | 153 | 4.3 | 7.8 | 0.00 | 0.00 | 0.00 | 59 | 1004.6 |
| 20260507151805 | 58 | 134 | 6.1 | 7.8 | 0.00 | 0.00 | 0.00 | 61 | 1004.7 |
| 20260507150906 | 58 | 132 | 4.3 | 7.0 | 0.00 | 0.00 | 0.00 | 61 | 1005.0 |
| 20260507150007 | 58 | 145 | 4.3 | 6.1 | 0.00 | 0.00 | 0.00 | 62 | 1004.9 |
| 20260507145407 | 57 | 135 | 5.2 | 7.0 | 0.00 | 0.00 | 0.00 | 62 | 1004.9 |
| 20260507144508 | 57 | 137 | 6.1 | 9.6 | 0.00 | 0.00 | 0.00 | 61 | 1005.0 |
| 20260507143822 | 57 | 146 | 6.1 | 11.3 | 0.00 | 0.00 | 0.00 | 60 | 1005.1 |
| 20260507142711 | 57 | 131 | 6.1 | 9.6 | 0.00 | 0.00 | 0.00 | 61 | 1005.2 |
| 20260507141805 | 57 | 134 | 6.1 | 9.6 | 0.00 | 0.00 | 0.00 | 60 | 1005.3 |
| 20260507140910 | 58 | 130 | 7.8 | 9.6 | 0.00 | 0.00 | 0.00 | 60 | 1005.5 |
| 20260507140008 | 58 | 122 | 7.8 | 11.3 | 0.00 | 0.00 | 0.00 | 60 | 1005.2 |
| 20260507135407 | 58 | 135 | 8.7 | 13.0 | 0.00 | 0.00 | 0.00 | 60 | 1005.4 |
| 20260507134715 | 58 | 161 | 8.7 | 13.0 | 0.00 | 0.00 | 0.00 | 60 | 1005.5 |
| 20260507133605 | 59 | 130 | 9.6 | 14.8 | 0.00 | 0.00 | 0.00 | 58 | 1005.4 |
| 20260507132920 | 59 | 141 | 9.6 | 14.8 | 0.00 | 0.00 | 0.00 | 59 | 1005.6 |
| 20260507131805 | 59 | 129 | 7.8 | 9.6 | 0.00 | 0.00 | 0.00 | 60 | 1005.6 |
| 20260507130907 | 59 | 114 | 5.2 | 9.6 | 0.00 | 0.00 | 0.00 | 57 | 1005.5 |
| 20260507130006 | 58 | 117 | 7.0 | 9.6 | 0.00 | 0.00 | 0.00 | 60 | 1005.8 |
| 20260507125407 | 57 | 134 | 6.1 | 9.6 | 0.00 | 0.00 | 0.00 | 60 | 1005.6 |
| 20260507124507 | 57 | 133 | 5.2 | 7.0 | 0.00 | 0.00 | 0.00 | 60 | 1005.7 |
| 20260507123818 | 57 | 127 | 6.1 | 7.8 | 0.00 | 0.00 | 0.00 | 60 | 1005.7 |
| 20260507122707 | 57 | 161 | 5.2 | 7.8 | 0.00 | 0.00 | 0.00 | 59 | 1005.9 |
| 20260507121806 | 56 | 123 | 7.0 | 9.6 | 0.00 | 0.00 | 0.00 | 58 | 1006.0 |
| 20260507120910 | 56 | 129 | 6.1 | 9.6 | 0.00 | 0.00 | 0.00 | 62 | 1006.0 |
| 20260507120223 | 56 | 130 | 8.7 | 12.2 | 0.00 | 0.00 | 0.00 | 62 | 1006.0 |
| 20260507115406 | 55 | 136 | 7.8 | 11.3 | 0.00 | 0.00 | 0.00 | 61 | 1006.2 |
| 20260507114505 | 55 | 187 | 7.8 | 11.3 | 0.00 | 0.00 | 0.00 | 64 | 1005.9 |
| 20260507113605 | 55 | 139 | 8.7 | 12.2 | 0.00 | 0.00 | 0.00 | 64 | 1006.0 |
| 20260507112707 | 54 | 134 | 9.6 | 11.3 | 0.00 | 0.00 | 0.00 | 65 | 1006.2 |
| 20260507111808 | 54 | 141 | 9.6 | 11.3 | 0.00 | 0.00 | 0.00 | 66 | 1006.0 |
| 20260507110906 | 53 | 130 | 9.6 | 13.0 | 0.00 | 0.00 | 0.00 | 67 | 1006.1 |
| 20260507110006 | 53 | 138 | 8.7 | 12.2 | 0.00 | 0.00 | 0.00 | 68 | 1006.2 |
| 20260507105405 | 52 | 142 | 8.7 | 11.3 | 0.00 | 0.00 | 0.00 | 70 | 1006.0 |
| 20260507104508 | 52 | 139 | 6.1 | 9.6 | 0.00 | 0.00 | 0.00 | 72 | 1006.2 |
| 20260507103605 | 51 | 140 | 7.0 | 9.6 | 0.00 | 0.00 | 0.00 | 73 | 1006.4 |
| 20260507102705 | 51 | 128 | 7.0 | 9.6 | 0.00 | 0.00 | 0.00 | 74 | 1006.3 |
| 20260507101805 | 50 | 130 | 6.1 | 7.0 | 0.00 | 0.00 | 0.00 | 75 | 1006.8 |
| 20260507100906 | 49 | 125 | 5.2 | 7.8 | 0.00 | 0.00 | 0.00 | 76 | 1006.5 |
| 20260507100005 | 49 | 119 | 6.1 | 9.6 | 0.00 | 0.00 | 0.00 | 78 | 1006.5 |
| 20260507095620 | 49 | 118 | 6.1 | 9.6 | 0.00 | 0.00 | 0.00 | 78 | 1006.6 |
| 20260507094508 | 48 | 115 | 5.2 | 6.1 | 0.00 | 0.00 | 0.00 | 79 | 1006.8 |
| 20260507093815 | 48 | 113 | 5.2 | 6.1 | 0.00 | 0.00 | 0.00 | 80 | 1006.7 |
| 20260507092705 | 48 | 121 | 4.3 | 7.8 | 0.00 | 0.00 | 0.00 | 80 | 1006.8 |
| 20260507091808 | 47 | 129 | 6.1 | 7.8 | 0.00 | 0.00 | 0.00 | 81 | 1006.8 |
| 20260507090910 | 47 | 132 | 6.1 | 9.6 | 0.00 | 0.00 | 0.00 | 81 | 1006.8 |
| 20260507090007 | 47 | 126 | 7.0 | 9.6 | 0.00 | 0.00 | 0.00 | 81 | 1006.8 |
| 20260507085407 | 47 | 126 | 7.0 | 9.6 | 0.00 | 0.00 | 0.00 | 82 | 1006.7 |
| 20260507084509 | 46 | 128 | 7.0 | 9.6 | 0.00 | 0.00 | 0.00 | 82 | 1006.5 |
| 20260507083607 | 46 | 129 | 5.2 | 7.0 | 0.00 | 0.00 | 0.00 | 82 | 1006.8 |
| 20260507082708 | 46 | 123 | 6.1 | 9.6 | 0.00 | 0.00 | 0.00 | 83 | 1006.6 |
| 20260507081805 | 46 | 131 | 4.3 | 6.1 | 0.00 | 0.00 | 0.00 | 83 | 1006.8 |
| 20260507080909 | 46 | 129 | 4.3 | 6.1 | 0.00 | 0.00 | 0.00 | 84 | 1006.8 |
| 20260507080009 | 46 | 117 | 5.2 | 7.0 | 0.00 | 0.00 | 0.00 | 84 | 1006.9 |
| 20260507075616 | 45 | 116 | 6.1 | 7.8 | 0.00 | 0.00 | 0.00 | 84 | 1006.4 |
| 20260507074507 | 45 | 118 | 5.2 | 7.8 | 0.00 | 0.00 | 0.00 | 84 | 1006.5 |
| 20260507073607 | 45 | 110 | 5.2 | 7.0 | 0.00 | 0.00 | 0.00 | 84 | 1006.4 |
| 20260507072918 | 45 | 121 | 4.3 | 6.1 | 0.00 | 0.00 | 0.00 | 84 | 1006.4 |
| 20260507071810 | 45 | 115 | 6.1 | 7.0 | 0.00 | 0.00 | 0.00 | 84 | 1006.3 |
| 20260507070907 | 45 | 117 | 5.2 | 7.0 | 0.00 | 0.00 | 0.00 | 84 | 1006.3 |
| 20260507070011 | 45 | 125 | 5.2 | 7.0 | 0.00 | 0.00 | 0.00 | 84 | 1006.2 |
| 20260507065405 | 45 | 118 | 5.2 | 7.0 | 0.00 | 0.00 | 0.00 | 84 | 1006.4 |
| 20260507064507 | 45 | 121 | 6.1 | 7.8 | 0.00 | 0.00 | 0.00 | 84 | 1006.2 |
| 20260507063605 | 45 | 135 | 6.1 | 7.0 | 0.00 | 0.00 | 0.00 | 84 | 1006.2 |
| 20260507062919 | 45 | 133 | 6.1 | 7.8 | 0.00 | 0.00 | 0.00 | 84 | 1006.2 |
| 20260507061809 | 45 | 128 | 4.3 | 6.1 | 0.00 | 0.00 | 0.00 | 84 | 1006.2 |
| 20260507060908 | 45 | 129 | 6.1 | 7.0 | 0.00 | 0.00 | 0.00 | 84 | 1006.2 |
| 20260507060006 | 44 | 137 | 4.3 | 7.0 | 0.00 | 0.00 | 0.00 | 84 | 1006.2 |
| 20260507055405 | 44 | 143 | 3.5 | 5.2 | 0.00 | 0.00 | 0.00 | 84 | 1006.1 |
| 20260507054508 | 44 | 123 | 5.2 | 7.0 | 0.00 | 0.00 | 0.00 | 84 | 1006.1 |
| 20260507053610 | 44 | 131 | 5.2 | 7.0 | 0.00 | 0.00 | 0.00 | 84 | 1006.2 |
| 20260507052706 | 44 | 135 | 4.3 | 6.1 | 0.00 | 0.00 | 0.00 | 84 | 1006.0 |
| 20260507051808 | 44 | 116 | 4.3 | 7.0 | 0.00 | 0.00 | 0.00 | 84 | 1006.0 |
| 20260507050906 | 44 | 115 | 5.2 | 7.8 | 0.00 | 0.00 | 0.00 | 84 | 1006.1 |
| 20260507050007 | 44 | 127 | 4.3 | 6.1 | 0.00 | 0.00 | 0.00 | 84 | 1006.0 |
| 20260507045405 | 44 | 116 | 4.3 | 6.1 | 0.00 | 0.00 | 0.00 | 84 | 1005.9 |
| 20260507044505 | 44 | 120 | 4.3 | 6.1 | 0.00 | 0.00 | 0.00 | 84 | 1005.9 |
| 20260507043607 | 44 | 114 | 3.5 | 6.1 | 0.00 | 0.00 | 0.00 | 84 | 1006.0 |
| 20260507042706 | 44 | 113 | 3.5 | 5.2 | 0.00 | 0.00 | 0.00 | 84 | 1006.1 |
| 20260507042018 | 44 | 118 | 3.5 | 5.2 | 0.00 | 0.00 | 0.00 | 83 | 1005.9 |
| 20260507040907 | 44 | 134 | 3.5 | 5.2 | 0.00 | 0.00 | 0.00 | 83 | 1006.0 |
| 20260507040006 | 44 | 130 | 4.3 | 6.1 | 0.00 | 0.00 | 0.00 | 83 | 1006.0 |
| 20260507035407 | 44 | 137 | 4.3 | 6.1 | 0.00 | 0.00 | 0.00 | 83 | 1006.0 |
| 20260507034505 | 44 | 134 | 4.3 | 6.1 | 0.00 | 0.00 | 0.00 | 83 | 1006.1 |
| 20260507033819 | 44 | 122 | 5.2 | 7.0 | 0.00 | 0.00 | 0.00 | 82 | 1006.0 |
| 20260507032705 | 44 | 139 | 5.2 | 7.8 | 0.00 | 0.00 | 0.00 | 82 | 1006.1 |
| 20260507031809 | 44 | 131 | 5.2 | 7.8 | 0.00 | 0.00 | 0.00 | 82 | 1006.0 |
| 20260507030905 | 44 | 131 | 6.1 | 7.0 | 0.00 | 0.00 | 0.00 | 82 | 1006.1 |
| 20260507030008 | 44 | 132 | 6.1 | 7.8 | 0.00 | 0.00 | 0.00 | 82 | 1006.1 |
| 20260507025408 | 44 | 132 | 5.2 | 7.8 | 0.00 | 0.00 | 0.00 | 82 | 1006.2 |
| 20260507024509 | 44 | 144 | 7.0 | 9.6 | 0.00 | 0.00 | 0.00 | 81 | 1006.1 |
| 20260507023605 | 44 | 138 | 7.0 | 9.6 | 0.00 | 0.00 | 0.00 | 81 | 1006.2 |
| 20260507022706 | 44 | 140 | 7.8 | 11.3 | 0.00 | 0.00 | 0.00 | 81 | 1006.2 |
| 20260507022019 | 44 | 135 | 8.7 | 11.3 | 0.00 | 0.00 | 0.00 | 81 | 1006.3 |
| 20260507020910 | 44 | 146 | 7.8 | 12.2 | 0.00 | 0.00 | 0.00 | 81 | 1006.0 |
| 20260507020007 | 45 | 132 | 7.0 | 9.6 | 0.00 | 0.00 | 0.00 | 80 | 1006.1 |
| 20260507015407 | 45 | 130 | 5.2 | 9.6 | 0.00 | 0.00 | 0.00 | 81 | 1006.2 |
| 20260507014507 | 45 | 111 | 6.1 | 9.6 | 0.00 | 0.00 | 0.00 | 81 | 1006.2 |
| 20260507013606 | 45 | 119 | 7.0 | 9.6 | 0.00 | 0.00 | 0.00 | 80 | 1006.1 |
| 20260507012705 | 45 | 130 | 6.1 | 7.8 | 0.00 | 0.00 | 0.00 | 80 | 1006.3 |
| 20260507011806 | 45 | 125 | 6.1 | 9.6 | 0.00 | 0.00 | 0.00 | 80 | 1006.3 |
| 20260507010906 | 45 | 114 | 7.0 | 9.6 | 0.00 | 0.00 | 0.00 | 79 | 1006.5 |
| 20260507010006 | 46 | 116 | 6.1 | 7.8 | 0.00 | 0.00 | 0.00 | 79 | 1006.4 |
| 20260507005406 | 46 | 134 | 5.2 | 7.0 | 0.00 | 0.00 | 0.00 | 79 | 1006.5 |
| 20260507004718 | 46 | 131 | 6.1 | 9.6 | 0.00 | 0.00 | 0.00 | 79 | 1006.6 |
| 20260507003607 | 46 | 120 | 7.0 | 9.6 | 0.00 | 0.00 | 0.00 | 79 | 1006.4 |
| 20260507002709 | 46 | 133 | 6.1 | 7.8 | 0.00 | 0.00 | 0.00 | 79 | 1006.5 |
| 20260507001807 | 46 | 126 | 5.2 | 7.8 | 0.00 | 0.00 | 0.00 | 79 | 1006.5 |
| 20260507000905 | 46 | 99 | 7.0 | 7.8 | 0.00 | 0.00 | 0.00 | 78 | 1006.7 |
| 20260507000006 | 46 | 127 | 6.1 | 7.8 | 0.00 | 0.00 | 0.00 | 78 | 1006.8 |
| 20260506235405 | 46 | 134 | 6.1 | 7.8 | 0.00 | 0.00 | 0.00 | 78 | 1006.5 |
| 20260506234507 | 46 | 117 | 6.1 | 7.0 | 0.00 | 0.00 | 0.00 | 78 | 1006.6 |
| 20260506233607 | 46 | 125 | 4.3 | 7.0 | 0.00 | 0.00 | 0.00 | 78 | 1006.6 |
| 20260506232708 | 46 | 128 | 5.2 | 9.6 | 0.00 | 0.00 | 0.00 | 78 | 1006.5 |
| 20260506231805 | 46 | 122 | 4.3 | 6.1 | 0.00 | 0.00 | 0.00 | 77 | 1006.7 |
| 20260506230907 | 46 | 122 | 4.3 | 7.0 | 0.00 | 0.00 | 0.00 | 76 | 1006.5 |
| 20260506230011 | 47 | 131 | 4.3 | 6.1 | 0.00 | 0.00 | 0.00 | 75 | 1006.5 |
| 20260506225407 | 47 | 135 | 5.2 | 7.0 | 0.00 | 0.00 | 0.00 | 75 | 1006.5 |
| 20260506224509 | 47 | 139 | 5.2 | 7.8 | 0.00 | 0.00 | 0.00 | 74 | 1006.4 |
| 20260506223605 | 47 | 133 | 6.1 | 9.6 | 0.00 | 0.00 | 0.00 | 74 | 1006.5 |
| 20260506222707 | 47 | 147 | 7.0 | 9.6 | 0.00 | 0.00 | 0.00 | 73 | 1006.3 |
| 20260506221807 | 48 | 138 | 5.2 | 7.8 | 0.00 | 0.00 | 0.00 | 74 | 1006.2 |
| 20260506220907 | 48 | 138 | 4.3 | 6.1 | 0.00 | 0.00 | 0.00 | 73 | 1006.4 |
| 20260506220007 | 48 | 143 | 3.5 | 6.1 | 0.00 | 0.00 | 0.00 | 73 | 1006.2 |
| 20260506215618 | 48 | 146 | 3.5 | 5.2 | 0.00 | 0.00 | 0.00 | 73 | 1006.2 |
| 20260506214720 | 49 | 135 | 4.3 | 6.1 | 0.00 | 0.00 | 0.00 | 73 | 1006.3 |
| 20260506213818 | 49 | 139 | 5.2 | 7.0 | 0.00 | 0.00 | 0.00 | 72 | 1006.3 |